Location: Shannon
(40.5500°S, 175.4167°E)
Time: 21:34:34
(UTC+00:00)

SL-8 Rocket - Pass Details

Date: 17 November 2025
Orbit: 957 x 988 km, 82.9° (Epoch: 14 December)

Event Time Altitude Azimuth Distance (km) Brightness Sun altitude
Exits shadow 13:51:00 58° 345° (NNW) 1,147 4.0 -25.3°
Maximum altitude 13:52:22 85° 263° (W) 1,002 3.9 -25.2°
Drops below altitude 10° 13:58:44 10° 174° (S) 2,761 7.2 -24.6°
Sets 14:01:16 0° 173° (S) 3,710 8.1 -24.3°
